Dewpoint
3 2 4 3 3 4 5 5 2 2 -2 -2 -3 -2 -2 3 3 8 9 11 12 11 9 8 1 0 -1 -1 -3 -6 -3 -3 1 8 10 11 10 9 5 -4 -7 -6 -4 -3 11 11 10 10 10
4 3 4 4 6 7 6 2 2 0 -2 -3 -3 -2 -0 9 9 9 10 11 12 9 8 7 3 2 1 -1 -5 -5 -3 -0 12 12 12 11 10 -3 -7 -6 -6 -5 -5 -3 5 8 7 2 -5
3 2 4 5 5 7 5 2 -1 -2 -3 -2 -2 -2 3 8 9 7 10 10 12 9 7 6 6 4 3 -1 -5 -5 -4 0 6 11 12 11 4 -4 -4 -3 -3 -4 -3 -3 -3 -3 -2 -1 1
2 5 5 5 7 4 3 0 -0 -2 -3 -3 -1 -1 6 8 9 9 9 9 11 10 7 7 7 6 5 1 -4 -5 -4 -1 0 7 11 8 -1 0 -0 -1 -1 -0 1 3 2 3 4 5 5
5 5 5 5 4 2 0 0 -0 -1 -3 -3 -2 -1 6 8 9 8 8 8 11 9 8 8 9 8 6 3 -1 -5 -4 0 3 7 7 9 1 3 2 1 1 2 5 9 6 8 8 8 8
6 5 7 6 5 2 0 -1 -2 -2 -3 -3 -2 -3 6 8 8 6 9 10 12 11 9 10 10 10 9 6 0 -4 -3 -0 2 7 7 5 8 8 5 3 1 1 4 6 8 8 8 7 5
5 4 6 5 4 3 1 -1 -2 -2 -2 -3 -3 -2 9 10 10 8 11 13 14 14 12 12 11 11 10 7 2 -2 -1 -0 3 5 5 8 10 11 10 6 3 1 4 6 7 6 7 6 4
5 4 6 4 4 3 0 -1 -2 -2 -2 -3 -2 4 10 9 11 12 12 13 14 14 14 14 14 13 11 10 6 1 0 2 4 7 8 10 10 11 11 10 8 5 2 4 5 6 6 6 5
5 6 7 6 5 3 1 1 -0 -1 -2 -2 -2 0 2 9 11 11 11 13 14 14 12 12 14 13 11 11 10 7 1 2 4 7 9 9 10 12 12 11 10 8 2 4 5 6 7 7 6
4 7 7 4 3 3 1 2 2 -0 -1 -2 -2 2 8 10 11 11 11 12 13 13 13 11 13 13 12 12 12 10 5 0 3 6 7 9 10 11 11 11 10 7 2 5 5 6 7 7 5
4 6 4 4 4 3 2 2 2 1 0 -1 -1 5 9 11 12 10 12 11 11 12 13 13 12 13 13 13 13 12 9 4 0 4 6 8 8 9 10 10 8 5 2 4 6 6 7 6 -1
5 4 3 3 3 3 2 1 3 3 1 1 2 1 6 10 12 12 11 11 11 12 12 13 13 13 14 13 13 12 12 9 3 -0 3 4 5 6 7 7 6 3 3 5 6 7 7 3 -5
3 3 3 2 2 3 2 2 2 3 3 1 2 3 2 2 1 7 11 12 12 11 11 12 12 13 13 13 13 13 13 12 10 4 1 1 2 4 6 8 7 6 7 7 6 8 7 -3 -6
2 2 2 2 2 3 3 3 2 2 1 1 1 1 2 2 2 2 4 8 11 12 12 11 12 12 13 13 13 13 13 12 11 8 4 2 2 5 7 8 9 8 8 7 8 8 3 -5 -5
3 4 3 3 3 3 3 3 4 2 2 2 1 -1 -1 1 1 2 2 2 3 3 6 12 11 11 11 12 13 13 13 13 12 11 9 9 8 6 4 7 9 9 10 7 8 7 -3 -4 -5
4 4 6 3 2 2 3 5 2 1 2 2 2 1 1 -2 -1 1 2 2 2 3 3 7 11 11 11 12 13 13 13 12 12 12 11 10 11 7 5 8 9 11 9 9 9 3 -3 -3 -4
4 6 6 5 2 2 3 5 2 1 1 1 1 1 0 -0 -0 -1 -0 1 1 2 2 3 10 10 11 11 11 11 12 12 12 12 11 12 11 10 7 8 10 11 9 9 8 -3 -2 -2 -6
5 6 4 4 1 1 2 4 2 1 0 -0 -1 -2 -2 -2 0 0 0 -0 0 1 1 2 2 8 9 10 9 10 12 12 12 11 12 12 12 11 10 11 10 10 9 9 6 -2 -1 -3 -7
3 4 4 2 -0 -1 -1 -1 -2 -3 -3 -3 -4 -4 -4 -3 -2 -1 -0 0 -0 0 0 0 1 2 8 9 9 9 11 12 11 12 12 11 12 11 10 11 11 11 9 9 2 -1 -1 -3 -7
4 4 4 1 -1 -1 -0 -0 -2 -3 -3 -3 -3 -4 -4 -5 -5 -4 -3 -2 -1 -0 -1 -0 -0 -0 3 8 8 9 8 10 10 12 12 12 11 11 10 11 11 10 9 8 -1 -1 -1 -1 -4
3 3 2 2 0 -1 -0 -2 -3 -3 -3 -4 -3 -4 -4 -4 -4 -5 -4 -3 -3 -2 -1 -1 -1 1 -0 2 8 9 9 10 11 11 11 12 11 11 11 11 11 10 9 6 -2 -1 -0 -1 -2
3 0 1 1 1 3 -0 3 0 -2 -4 -5 -5 -5 -4 -4 -4 -4 -6 -5 -5 -5 -5 -4 -2 -2 1 2 5 9 9 9 9 10 11 11 11 11 11 11 11 10 9 2 -2 -0 -0 -0 -0
2 -0 0 1 1 1 1 3 -0 -3 -3 -4 -6 -6 -7 -8 -7 -6 -6 -6 -6 -6 -6 -6 -5 -3 -1 2 4 7 8 8 8 8 9 9 10 11 11 11 11 10 8 -0 -1 -0 -0 -0 0
0 -0 0 1 1 1 0 2 -1 -4 -4 -7 -8 -9 -10 -10 -9 -7 -6 -6 -6 -6 -5 -5 -5 -4 -3 1 3 6 8 8 9 8 9 9 10 11 10 11 11 10 6 -1 -1 -0 -0 -0 -0
-0 0 1 -0 0 2 -0 2 0 -4 -6 -7 -7 -8 -9 -9 -10 -9 -9 -8 -8 -5 -4 -4 -4 -4 -4 -3 2 5 7 8 7 7 8 8 8 11 10 10 10 8 3 -1 -0 -0 -1 -1 -0
1 0 1 1 3 3 -0 2 -1 -5 -6 -7 -8 -8 -8 -9 -9 -9 -9 -8 -5 -3 -4 -3 -3 -4 -4 -3 -3 3 5 6 8 7 6 7 7 9 10 9 9 7 1 -0 -0 -1 -1 -1 -1
2 2 -0 1 0 -0 1 -1 -5 -7 -8 -6 -5 -5 -5 -5 -6 -8 -9 -3 -1 -1 -1 -2 -3 -3 -3 -3 -1 0 4 6 6 7 7 8 8 10 10 9 7 2 2 -1 -1 -1 -1 -2 -2
0 -0 1 -2 -0 3 1 -0 -2 -5 -6 -5 -6 -6 -5 -5 -5 -5 -4 -3 -4 -5 -5 -6 -4 -4 -5 -4 -2 0 2 6 7 7 7 8 10 11 9 9 4 1 -1 -1 -1 1 1 -2 -2
2 2 1 1 1 2 4 2 -4 -5 -6 -5 -6 -4 -3 -2 -2 -2 -5 -5 -4 -5 -6 -6 -7 -8 -9 -7 -1 1 3 6 7 8 9 10 10 10 8 8 3 -0 -2 0 3 1 -3 -3 -3
0 1 1 0 -0 1 1 2 -4 -5 -5 -4 -3 -1 1 1 -1 -2 -4 -4 -3 -3 -5 -5 -5 -5 -4 -3 -1 1 4 8 8 8 10 10 9 9 8 6 1 -2 2 1 0 -3 -4 -3 -3
Wind_Speed
6 5 6 3 3 4 3 6 3 6 3 5 3 4 3 0 2 3 10 14 7 14 20 19 18 16 15 13 12 10 10 11 12 10 10 10 7 3 1 4 8 9 10 12 15 13 10 7 4
7 5 4 0 4 2 5 4 5 8 7 4 5 3 4 1 2 6 16 14 6 14 20 21 18 16 15 13 12 11 11 13 17 15 14 11 6 6 9 11 12 13 14 13 12 9 7 5 5
8 7 3 3 3 6 5 2 5 4 3 1 3 5 3 3 5 9 6 13 14 17 19 20 18 17 15 14 12 12 11 12 16 18 14 10 8 10 11 12 13 13 14 14 13 12 11 10 10
8 6 3 3 8 7 6 3 5 10 5 3 4 4 3 4 7 6 8 14 15 20 20 20 19 17 15 13 13 11 11 11 13 17 14 12 11 10 11 12 12 12 12 13 12 12 12 11 10
11 4 3 3 7 6 4 9 14 8 6 2 4 2 3 3 4 8 12 15 16 20 21 20 20 17 15 13 13 11 10 12 14 17 17 14 12 11 10 10 10 11 11 11 12 11 10 8 7
6 3 3 6 5 5 8 12 7 9 13 3 2 5 1 6 5 9 14 15 15 17 20 18 19 16 15 14 13 12 11 12 14 17 17 15 12 10 9 9 9 9 9 9 8 7 7 6 5
5 4 5 5 5 6 10 2 4 12 14 9 6 4 7 9 9 12 16 16 15 14 18 18 14 13 12 13 14 14 14 12 15 17 17 14 10 9 8 7 8 8 7 7 6 5 4 4 3
6 4 4 6 6 6 7 1 8 9 16 11 8 6 6 15 14 22 18 16 17 17 17 18 15 15 13 13 13 13 15 14 15 16 15 14 12 10 10 8 8 6 5 5 3 2 1 1 1
6 3 5 6 8 5 4 3 8 8 7 6 6 9 11 19 17 24 23 22 21 19 18 16 15 15 16 15 14 12 13 16 16 16 16 15 13 14 13 10 8 5 4 4 3 1 1 1 2
6 4 7 5 4 2 8 4 6 6 5 4 4 8 21 20 20 24 27 26 25 24 23 20 16 16 19 18 17 15 13 16 17 18 17 16 14 13 12 11 10 8 7 6 4 3 3 3 4
5 5 8 6 11 6 3 15 4 3 4 2 1 15 20 23 25 25 27 27 27 25 24 22 20 19 20 21 19 18 16 16 18 19 18 17 16 16 15 14 12 10 10 8 6 5 4 5 6
3 8 12 4 16 9 2 9 3 9 10 6 4 3 13 18 23 26 28 29 28 27 26 24 22 20 20 18 20 20 20 18 18 20 21 20 18 16 15 13 13 12 11 9 7 5 6 7 9
3 4 9 14 17 16 12 9 12 11 13 19 17 13 11 12 12 24 27 27 27 26 27 27 25 22 22 23 18 17 21 21 18 20 22 22 20 18 16 14 14 13 11 9 8 7 8 9 11
3 14 10 13 9 8 7 8 13 6 15 22 25 25 20 17 15 15 20 25 28 30 30 29 28 25 26 25 23 22 20 18 19 22 22 21 19 19 18 19 17 14 10 10 9 9 9 10 10
3 2 3 6 6 4 4 14 7 19 25 28 32 32 33 29 24 24 23 22 21 19 24 36 32 29 31 30 27 26 25 21 22 20 22 21 19 19 20 22 20 14 12 12 11 10 10 10 9
3 4 1 4 4 9 9 17 3 15 23 28 34 32 29 34 36 30 31 30 29 26 22 29 37 33 32 34 32 30 27 25 23 22 21 20 18 21 22 22 19 16 16 14 12 11 10 9 8
4 2 4 7 11 6 10 3 14 24 26 19 25 28 29 32 31 36 37 35 36 35 31 25 36 37 35 35 31 31 28 28 25 23 21 22 21 21 21 20 19 19 18 15 13 11 9 7 6
5 2 3 6 4 1 6 10 10 18 12 20 23 26 29 28 33 28 29 28 35 37 38 36 29 39 39 37 31 32 31 30 28 27 28 27 26 24 21 22 21 19 18 15 13 11 8 5 3
5 2 4 5 6 4 7 6 10 18 17 21 27 32 36 36 33 26 23 21 23 36 34 34 34 32 40 41 37 33 35 35 31 30 32 31 30 27 25 27 24 21 18 15 14 11 8 4 3
2 6 6 6 3 3 7 15 14 14 17 25 31 33 39 43 41 36 31 29 27 24 25 36 40 33 37 44 43 40 36 38 32 35 32 34 32 29 28 28 27 24 21 17 16 12 8 6 4
4 4 3 5 6 0 7 10 6 6 12 21 31 38 34 36 39 40 38 35 34 34 31 29 26 28 36 37 44 42 36 39 38 36 35 36 35 31 32 29 28 26 22 18 17 13 10 8 6
2 1 2 2 3 4 5 6 6 8 10 7 13 15 21 23 23 24 28 34 35 32 33 36 34 29 28 33 43 46 45 44 42 41 40 38 36 35 34 30 31 28 24 21 19 15 12 8 6
3 3 3 2 3 4 3 3 8 5 8 8 7 7 1 6 14 23 21 20 21 24 26 28 33 33 31 30 39 45 47 43 44 42 42 40 39 37 35 35 34 30 26 23 20 16 13 9 6
6 4 6 4 3 2 5 5 5 4 5 2 4 9 6 9 8 8 13 15 19 21 24 26 26 33 30 29 34 42 47 46 46 43 45 43 43 40 38 38 34 31 28 24 22 18 14 10 8
5 5 3 4 2 6 2 3 7 8 9 5 9 18 17 12 8 9 12 11 13 14 14 17 16 22 29 28 32 37 46 46 47 44 43 46 44 44 42 39 37 32 29 27 23 19 15 11 8
4 6 4 5 2 4 1 6 6 7 13 12 10 11 10 15 16 17 17 15 14 14 14 14 15 17 23 24 26 34 41 44 45 46 41 43 43 47 45 39 37 35 32 28 24 19 14 11 9
3 2 3 2 2 3 4 7 9 6 1 3 8 10 12 14 13 16 14 13 11 10 9 12 14 18 22 26 25 30 38 45 45 45 41 40 43 45 42 38 39 36 33 29 25 19 13 13 10
4 5 3 3 1 4 4 5 8 6 2 6 7 8 12 18 19 16 13 13 12 11 10 9 17 20 25 29 31 32 34 37 41 43 40 38 40 39 41 39 40 37 34 30 24 19 18 15 11
3 1 3 3 4 3 4 6 6 5 2 5 6 17 24 28 31 36 29 21 18 17 17 23 23 25 30 31 33 32 36 39 39 39 38 36 33 41 39 41 41 37 34 28 23 20 16 13 12
4 6 6 4 4 3 3 7 6 4 3 5 20 29 29 33 33 31 29 19 20 20 25 26 28 28 33 34 33 35 35 39 38 39 36 28 34 38 39 43 40 37 31 26 24 20 16 12 12
Wind_Direction
253 245 276 303 58 67 258 262 279 303 283 174 132 99 148 143 181 197 141 159 161 184 173 169 166 160 155 149 142 141 145 161 160 152 146 150 142 128 136 122 115 108 107 126 143 151 149 170 196
238 230 254 186 104 139 259 245 274 235 250 154 102 64 101 111 136 153 152 179 200 189 179 172 166 163 158 151 141 138 138 143 146 147 158 154 141 125 120 115 113 112 112 119 142 161 170 161 125
211 205 179 141 168 201 217 229 303 318 250 171 87 64 106 155 155 164 170 179 185 186 184 174 169 168 165 155 145 144 137 143 161 166 173 167 149 129 121 116 114 113 112 113 116 118 116 111 102
187 178 144 125 228 255 208 223 355 325 271 90 76 58 101 265 178 188 187 173 184 183 186 179 174 172 169 160 150 144 140 142 157 172 168 161 145 129 122 118 114 111 112 109 107 108 105 99 94
187 163 123 210 245 263 263 258 277 287 276 199 141 174 138 148 218 211 187 172 180 182 187 183 178 175 172 166 156 149 144 144 152 159 160 158 146 136 127 122 119 117 116 113 111 108 103 95 85
171 171 119 216 231 255 277 267 267 258 265 196 168 127 153 168 197 193 188 183 182 187 185 184 182 180 175 173 167 159 156 149 150 156 158 159 158 147 140 132 127 120 117 116 107 97 89 81 73
165 120 201 198 218 261 256 275 212 253 237 216 152 96 157 166 165 181 192 199 190 190 185 185 189 185 181 179 173 169 166 161 158 159 165 168 173 175 160 148 140 127 129 124 112 101 87 75 79
208 118 194 222 194 247 248 301 289 277 228 208 174 156 175 186 163 181 192 208 207 200 198 198 195 196 198 184 178 174 177 176 172 171 174 179 182 186 185 167 158 139 147 146 140 120 83 84 78
196 123 214 217 172 222 263 13 333 294 233 192 136 134 192 177 169 180 188 205 213 217 211 209 213 218 214 199 192 187 186 189 184 180 183 185 184 179 185 184 182 179 181 184 190 223 229 218 279
176 170 220 214 193 249 300 320 307 328 289 193 129 127 167 176 181 181 190 199 207 215 215 218 221 223 215 207 203 199 194 196 192 189 189 191 189 185 191 197 204 209 205 207 217 214 234 280 291
192 203 226 254 266 275 327 314 312 272 283 287 352 163 176 183 190 194 199 204 214 220 221 226 221 221 216 217 214 210 205 202 199 197 198 200 198 197 196 203 211 213 219 218 218 229 262 290 292
209 207 223 232 256 275 259 281 265 239 242 242 259 166 197 197 203 203 203 206 212 221 231 231 225 224 219 222 222 225 215 207 206 205 207 209 206 202 201 203 213 215 218 221 228 243 272 282 290
236 259 250 246 267 276 275 236 249 224 242 250 260 265 226 217 234 226 217 216 218 222 226 229 225 223 226 223 223 227 223 222 218 212 214 216 213 211 209 212 213 217 217 223 235 253 273 285 291
264 229 245 265 251 252 256 252 242 251 263 264 267 261 261 244 231 226 226 229 227 226 229 231 227 224 227 231 231 229 229 232 222 213 215 217 218 220 217 216 219 214 223 233 245 257 270 282 290
202 150 323 249 241 254 316 274 221 242 260 265 268 269 264 267 249 237 237 242 238 239 237 228 227 227 226 229 230 235 238 232 225 215 216 218 216 227 217 215 223 226 241 241 248 257 268 280 287
133 73 310 262 265 253 190 252 275 247 253 255 263 268 269 266 265 252 239 243 238 244 246 240 227 227 227 228 229 230 233 234 222 218 220 217 221 221 218 220 223 230 240 244 252 254 264 277 284
19 209 232 305 221 232 187 241 247 259 246 251 262 260 271 269 256 255 245 240 239 242 245 247 236 229 229 230 232 239 226 229 218 213 222 223 224 231 218 221 226 238 238 241 247 248 257 267 277
198 218 263 241 315 353 272 255 280 274 236 243 263 267 268 268 261 250 250 246 241 239 247 249 251 238 234 231 233 238 220 229 218 208 219 221 226 231 222 223 232 237 235 238 238 239 247 254 261
102 176 253 273 284 323 275 270 268 273 277 272 268 266 266 263 259 259 250 255 251 240 237 249 251 243 233 230 229 228 220 223 224 210 221 222 228 229 225 224 237 241 233 237 232 233 234 232 215
291 289 281 277 257 273 293 285 265 254 255 246 252 260 261 263 262 260 257 253 256 252 245 245 246 244 237 233 231 231 224 224 227 211 224 223 228 226 223 229 240 238 230 231 228 228 226 218 200
182 194 236 260 317 332 324 279 277 289 260 262 246 251 257 259 263 258 254 253 254 255 253 249 252 251 246 237 235 230 231 226 220 213 223 221 227 227 227 231 237 233 227 227 229 228 226 228 212
161 125 108 49 29 263 21 290 298 280 295 263 271 271 261 265 265 263 258 254 254 257 258 256 251 255 251 238 233 229 225 222 223 221 219 219 226 229 231 236 234 228 225 220 226 228 227 228 234
167 98 80 64 59 4 291 231 277 276 286 291 263 240 222 316 273 257 261 262 260 256 255 257 256 255 251 246 235 234 233 228 227 226 222 223 221 229 233 233 228 222 221 218 223 227 228 231 241
134 72 40 51 61 329 239 192 272 249 235 292 23 269 277 295 280 273 253 262 266 256 253 257 259 240 253 248 242 231 232 232 229 226 222 222 223 223 228 229 220 221 219 217 222 224 227 233 246
86 69 341 348 0 229 176 190 249 275 265 285 300 298 294 266 273 263 266 263 267 256 252 251 250 241 252 254 247 237 231 235 231 230 229 226 225 220 227 225 217 216 215 216 216 220 227 236 250
161 147 169 244 229 283 312 239 256 244 294 298 311 310 312 289 288 279 273 253 237 235 242 250 254 253 254 262 258 243 240 233 234 232 233 234 235 226 219 226 215 213 212 214 215 217 223 243 252
216 149 184 105 19 27 261 303 288 275 182 32 16 20 17 358 330 300 262 238 227 238 249 255 258 262 266 263 260 252 241 236 234 231 235 236 233 226 217 224 215 211 213 211 212 214 225 245 249
138 162 60 4 21 275 288 269 241 278 208 350 337 341 354 337 323 309 282 263 261 269 268 286 265 266 271 271 259 252 247 236 237 235 236 232 229 227 217 221 211 211 208 208 210 223 232 240 256
133 253 61 113 164 203 304 253 214 244 209 317 318 320 320 315 305 299 285 272 269 271 283 293 289 272 269 263 260 239 244 235 231 235 231 231 231 222 219 215 208 208 204 206 220 221 230 238 262
165 186 154 135 251 231 182 270 282 277 194 300 317 315 315 304 299 287 265 276 270 276 283 288 293 288 274 261 248 234 235 230 222 228 226 221 231 225 220 211 206 205 206 209 216 219 225 246 271
Height
1524 1524 1524 1524 1534 1537 1538 1526 1513 1510 1508 1503 1503 1504 1505 1506 1507 1518 1506 1508 1510 1512 1514 1516 1518 1520 1521 1522 1523 1524 1525 1526 1528 1530 1531 1532 1532 1533 1533 1533 1532 1532 1532 1532 1535 1536 1537 1537 1538
1522 1523 1524 1524 1538 1544 1537 1517 1512 1508 1504 1501 1500 1502 1504 1506 1505 1505 1507 1508 1511 1512 1514 1516 1518 1520 1521 1522 1523 1524 1525 1526 1527 1529 1531 1532 1533 1533 1534 1533 1533 1533 1533 1534 1535 1536 1537 1537 1537
1520 1521 1524 1526 1535 1538 1531 1511 1509 1503 1502 1500 1500 1501 1504 1505 1505 1505 1506 1507 1510 1513 1515 1517 1519 1521 1522 1522 1523 1524 1525 1526 1527 1529 1531 1532 1534 1534 1534 1534 1535 1535 1535 1535 1536 1537 1537 1538 1538
1519 1521 1524 1530 1531 1520 1514 1507 1505 1506 1503 1500 1500 1503 1506 1504 1505 1506 1506 1508 1510 1512 1515 1517 1519 1521 1522 1523 1523 1524 1525 1526 1528 1529 1531 1533 1534 1535 1535 1535 1536 1536 1536 1537 1538 1538 1539 1539 1539
1516 1518 1527 1530 1525 1515 1508 1508 1507 1506 1504 1500 1500 1503 1504 1504 1505 1506 1505 1507 1510 1512 1515 1517 1519 1521 1523 1523 1524 1525 1526 1527 1528 1530 1532 1533 1535 1535 1537 1537 1537 1538 1538 1539 1539 1539 1540 1540 1540
1515 1516 1529 1529 1522 1512 1506 1507 1508 1506 1503 1501 1501 1502 1505 1505 1505 1506 1507 1508 1510 1512 1515 1517 1519 1521 1523 1524 1524 1525 1526 1527 1528 1530 1532 1534 1535 1536 1537 1538 1538 1539 1539 1540 1541 1541 1540 1540 1540
1512 1516 1521 1520 1518 1515 1506 1506 1505 1502 1501 1499 1499 1502 1505 1505 1506 1507 1509 1510 1512 1513 1515 1517 1519 1521 1523 1524 1524 1525 1526 1528 1529 1530 1533 1534 1536 1537 1537 1539 1539 1540 1540 1541 1541 1541 1541 1540 1540
1510 1512 1516 1514 1514 1513 1502 1503 1503 1500 1497 1497 1496 1500 1504 1503 1506 1508 1509 1510 1512 1513 1515 1517 1518 1520 1522 1523 1524 1525 1526 1528 1530 1531 1533 1534 1535 1537 1538 1538 1540 1540 1541 1541 1541 1541 1541 1541 1540
1508 1515 1517 1509 1510 1505 1499 1502 1501 1499 1496 1495 1495 1496 1497 1501 1505 1507 1509 1511 1511 1512 1514 1516 1517 1519 1521 1523 1524 1525 1526 1527 1529 1531 1532 1534 1535 1536 1537 1538 1540 1540 1540 1541 1541 1541 1541 1541 1540
1504 1512 1506 1499 1499 1501 1500 1501 1501 1499 1496 1494 1495 1495 1496 1500 1502 1503 1506 1508 1509 1511 1511 1515 1517 1518 1519 1521 1523 1524 1525 1526 1528 1530 1531 1532 1533 1534 1536 1537 1538 1539 1539 1540 1540 1540 1540 1540 1540
1499 1504 1499 1496 1497 1500 1500 1499 1502 1499 1497 1495 1496 1495 1496 1498 1500 1500 1501 1504 1505 1508 1511 1513 1515 1516 1518 1519 1521 1522 1523 1525 1527 1528 1530 1530 1532 1532 1534 1535 1536 1537 1538 1538 1539 1539 1539 1539 1538
1499 1496 1496 1496 1497 1498 1499 1499 1498 1499 1496 1495 1495 1497 1498 1498 1499 1499 1499 1500 1503 1505 1507 1510 1513 1515 1515 1518 1518 1520 1521 1523 1524 1526 1527 1527 1529 1531 1532 1533 1535 1536 1536 1537 1538 1539 1539 1539 1537
1496 1495 1494 1495 1496 1496 1496 1496 1496 1493 1495 1493 1493 1495 1495 1495 1496 1498 1499 1501 1501 1502 1504 1506 1508 1511 1512 1514 1516 1518 1520 1521 1523 1524 1526 1526 1527 1529 1530 1531 1533 1534 1536 1537 1537 1537 1537 1537 1536
1492 1492 1492 1493 1494 1494 1494 1492 1493 1489 1491 1490 1489 1489 1491 1492 1493 1494 1496 1498 1499 1500 1501 1503 1504 1507 1507 1509 1512 1515 1517 1518 1519 1520 1522 1524 1526 1527 1528 1529 1531 1533 1534 1536 1536 1535 1535 1535 1534
1491 1492 1492 1491 1491 1491 1492 1486 1485 1487 1486 1484 1485 1485 1483 1485 1487 1489 1491 1493 1494 1495 1496 1498 1500 1504 1504 1505 1507 1511 1513 1515 1516 1518 1520 1522 1523 1524 1525 1527 1529 1531 1533 1535 1535 1534 1534 1533 1532
1491 1493 1498 1489 1487 1487 1491 1484 1480 1481 1481 1480 1479 1480 1479 1476 1478 1482 1484 1486 1488 1489 1491 1492 1494 1498 1500 1501 1503 1505 1509 1511 1513 1515 1516 1518 1521 1522 1524 1526 1528 1530 1531 1533 1534 1533 1532 1531 1530
1496 1502 1500 1494 1483 1485 1486 1484 1475 1475 1476 1476 1476 1475 1474 1472 1472 1473 1476 1479 1482 1483 1485 1488 1489 1493 1495 1497 1500 1501 1504 1506 1508 1511 1513 1516 1519 1521 1522 1523 1526 1528 1530 1531 1532 1531 1531 1529 1528
1498 1501 1497 1497 1485 1483 1483 1481 1474 1472 1472 1471 1470 1470 1468 1466 1464 1466 1469 1472 1475 1477 1478 1482 1484 1486 1491 1495 1497 1498 1499 1502 1504 1506 1509 1513 1516 1518 1520 1522 1524 1525 1527 1528 1529 1529 1529 1528 1526
1488 1494 1497 1492 1485 1486 1482 1480 1475 1468 1467 1465 1462 1461 1459 1459 1460 1462 1464 1466 1466 1469 1472 1474 1477 1479 1483 1487 1490 1493 1494 1496 1499 1503 1506 1509 1512 1515 1517 1519 1521 1523 1525 1526 1526 1527 1526 1526 1525
1490 1496 1498 1491 1486 1486 1483 1476 1468 1463 1458 1456 1455 1453 1451 1452 1454 1456 1459 1461 1462 1464 1465 1467 1469 1473 1474 1478 1484 1486 1488 1491 1493 1498 1503 1506 1509 1511 1514 1516 1519 1520 1522 1524 1524 1524 1524 1524 1524
1493 1494 1494 1494 1489 1487 1484 1468 1462 1453 1448 1445 1443 1443 1446 1445 1445 1447 1451 1454 1456 1457 1459 1461 1463 1464 1468 1471 1475 1480 1484 1487 1488 1493 1497 1500 1504 1507 1509 1513 1515 1517 1519 1521 1522 1522 1522 1522 1522
1492 1490 1490 1492 1495 1502 1491 1493 1471 1455 1449 1442 1439 1440 1441 1440 1440 1441 1443 1446 1449 1450 1453 1454 1457 1457 1460 1462 1465 1469 1473 1476 1480 1484 1489 1494 1498 1502 1505 1508 1510 1513 1515 1517 1519 1520 1519 1519 1520
1489 1489 1491 1493 1501 1504 1498 1501 1473 1459 1450 1442 1437 1437 1438 1439 1438 1438 1439 1441 1443 1445 1446 1447 1450 1450 1452 1454 1456 1462 1465 1470 1473 1477 1482 1487 1491 1496 1500 1502 1504 1508 1511 1513 1516 1517 1517 1517 1517
1486 1492 1498 1501 1508 1526 1496 1492 1478 1458 1447 1440 1438 1438 1437 1438 1437 1436 1437 1438 1438 1439 1440 1442 1443 1444 1445 1447 1450 1453 1457 1462 1467 1471 1474 1479 1484 1488 1493 1496 1500 1503 1505 1508 1511 1513 1514 1513 1513
1489 1500 1524 1528 1538 1509 1489 1494 1471 1450 1444 1441 1441 1438 1436 1435 1436 1436 1435 1435 1435 1435 1436 1436 1437 1439 1440 1441 1444 1447 1449 1454 1458 1464 1467 1472 1476 1480 1484 1489 1493 1498 1501 1503 1505 1508 1510 1510 1509
1493 1498 1515 1500 1516 1504 1486 1482 1458 1441 1441 1440 1438 1436 1434 1434 1433 1431 1431 1431 1431 1432 1432 1433 1433 1434 1435 1435 1438 1443 1445 1447 1451 1457 1461 1465 1469 1473 1477 1484 1489 1492 1495 1499 1501 1504 1505 1505 1506
1495 1507 1498 1510 1510 1526 1492 1474 1452 1441 1442 1441 1438 1435 1434 1433 1431 1429 1427 1427 1427 1428 1428 1429 1429 1431 1432 1432 1432 1434 1437 1441 1445 1450 1456 1458 1462 1467 1473 1479 1484 1488 1490 1493 1496 1498 1500 1504 1502
1490 1492 1510 1525 1535 1511 1489 1484 1460 1446 1441 1439 1438 1437 1436 1435 1433 1431 1429 1426 1424 1424 1424 1425 1426 1425 1425 1426 1426 1427 1429 1435 1440 1445 1448 1451 1456 1462 1468 1474 1478 1483 1486 1489 1491 1493 1494 1500 1497
1492 1499 1498 1504 1512 1517 1500 1469 1447 1441 1439 1441 1439 1436 1434 1432 1429 1426 1424 1422 1420 1418 1418 1418 1418 1417 1416 1417 1418 1419 1423 1426 1432 1438 1442 1446 1451 1457 1462 1467 1472 1478 1482 1484 1488 1489 1493 1492 1492
1484 1488 1493 1515 1510 1511 1508 1468 1437 1437 1438 1437 1434 1432 1430 1427 1421 1418 1417 1416 1415 1413 1412 1411 1411 1412 1410 1409 1409 1410 1414 1420 1424 1430 1436 1442 1447 1452 1456 1461 1468 1473 1476 1480 1480 1486 1488 1486 1487